CZ-6A DEB

Satellite information

Favourite Embed

Satellite Type and Status

DEBRISIN ORBIT

Key statistics

Satellite CZ-6A DEB at a glance.

Uptime

969

Days in orbit

Revolutions

≈ 14.2

Per day

Orbit

SSO

Sun Synchronous Orbit

Inclination

98.8

Latest

Satellite identification and parameters

Extended collection of information and parameters for CZ-6A DEB.

Object identification

Identified? True

Debris? True

Object name: CZ-6A DEB

International designator: 2022-151AHW

Object number (NORAD): 57579

Object ID (CCSDS): 57579

Country: PEOPLES REPUBLIC OF CHINA (PRC)

Current information (Y/N): Y

RCS size: SMALL

Orbital parameters

Period: 101.157 minutes

Inclination: 98.7663 deg

SMA: 7191.595 km

Apoapsis: 829.773 km

Periapsis: 797.146 km

RAAN: 198.7699 deg

Eccentricy: 0.0022684

Argument of periapsis: 255.3509 deg

Mean anomaly: 104.5154 deg

Mean motion: 14.23524529 rev/day

Mean motion (dot): 0.00001242 rev/day2

B* drag term: 0.00056414 1/REarth

Two-line elements (TLE)

Creation date: July 5, 2025, 6:46 a.m.

Reference frame: TEME

Reference center: EARTH

Epoch: July 4, 2025, 6:26 p.m. UTC

TLE line 0: 0 CZ-6A DEB

TLE line 1: 1 57579U 22151AHW 25185.76873242 .00001242 00000-0 56414-3 0 9996

TLE line 2: 2 57579 98.7663 198.7699 0022684 255.3509 104.5154 14.23524529114018

Live tracking on map

Real-time ground track for satellite CZ-6A DEB.

In-orbit conjunctions

A list of the most updated potential collisions computed for object CZ-6A DEB.

Target Orbit TCA Probability of collision Miss distance Type
SL-3 DEB LEO 2024-09-19 14:07:10 0.0002693152 147.0 (m) DEBRIS
FENGYUN 1C DEB SSO 2024-06-13 13:13:44 0.0002713806 128.0 (m) DEBRIS

Associated space launch

Chinese satellite reported for atmospheric/ocean/environmental/spatial parameter research purposes, details TBD.

CZ-6A DEB was lifted into orbit during the mission ‘Long March 6A | Yunhai 3’, on board a Long March 6A space rocket.

The launch took place on Nov. 11, 2022, 10:52 p.m. from Launch Complex 9A.

For more information about the launch, click the button.

Launch to space Long March 6A | Yunhai 3
Long March 6A | Yunhai 3

Agency: N/A

Status: Launch Successful

Launch date: Nov. 11, 2022, 10:52 p.m. UTC

Rocket: Long March 6A

Launch pad: Launch Complex 9A

Location: Taiyuan Satellite Launch Center, People's Republic of China

...

Latest news about this satellite

There are no fresh news available about this satellite. Check back as we update our databases every day.


Newsletter sign-up

Weekly statistics, charts and insights to help you stay on top of the space industry.